| time (UTC) | temp F | wind direction | speed MPH | gust MPH | rain 1hr in | rain 24hr in | rain mn in | humidity % | barometer mb |
| 20260502234600 | 57 | 225 | 1.0 | 6.0 | 0.00 | 0.00 | 0.00 | 27 | 1018.1 |
| 20260502233046 | 56 | 278 | 1.0 | 4.0 | 0.00 | 0.00 | 0.00 | 27 | 1018.3 |
| 20260502231542 | 55 | 255 | 1.0 | 3.0 | 0.00 | 0.00 | 0.00 | 29 | 1018.6 |
| 20260502230043 | 54 | 229 | 1.0 | 3.0 | 0.00 | 0.00 | 0.00 | 29 | 1018.8 |
| 20260502224539 | 50 | 162 | 0.0 | 1.0 | 0.00 | 0.00 | 0.00 | 36 | 1018.9 |
| 20260502223038 | 50 | 131 | 0.0 | 8.0 | 0.00 | 0.00 | 0.00 | 37 | 1019.0 |
| 20260502221538 | 51 | 180 | 0.0 | 4.0 | 0.00 | 0.00 | 0.00 | 31 | 1019.1 |
| 20260502220043 | 52 | 134 | 0.0 | 4.0 | 0.00 | 0.00 | 0.00 | 31 | 1019.4 |
| 20260502214538 | 53 | 228 | 1.0 | 4.0 | 0.00 | 0.00 | 0.00 | 31 | 1019.6 |
| 20260502213040 | 52 | 276 | 2.0 | 5.0 | 0.00 | 0.00 | 0.00 | 32 | 1019.8 |
| 20260502211538 | 53 | 177 | 1.0 | 6.0 | 0.00 | 0.00 | 0.00 | 33 | 1020.1 |
| 20260502210034 | 53 | 150 | 1.0 | 4.0 | 0.00 | 0.00 | 0.00 | 30 | 1020.1 |
| 20260502204537 | 52 | 205 | 2.0 | 8.0 | 0.00 | 0.00 | 0.00 | 33 | 1020.3 |
| 20260502203033 | 51 | 223 | 0.0 | 3.0 | 0.00 | 0.00 | 0.00 | 31 | 1020.4 |
| 20260502201541 | 51 | 242 | 1.0 | 3.0 | 0.00 | 0.00 | 0.00 | 31 | 1020.4 |
| 20260502200031 | 51 | 233 | 0.0 | 5.0 | 0.00 | 0.00 | 0.00 | 30 | 1020.5 |
| 20260502194530 | 52 | 264 | 0.0 | 4.0 | 0.00 | 0.00 | 0.00 | 31 | 1020.5 |
| 20260502193030 | 51 | 149 | 0.0 | 3.0 | 0.00 | 0.00 | 0.00 | 31 | 1020.5 |
| 20260502191529 | 52 | 245 | 0.0 | 4.0 | 0.00 | 0.00 | 0.00 | 29 | 1020.6 |
| 20260502190040 | 54 | 203 | 0.0 | 3.0 | 0.00 | 0.00 | 0.00 | 30 | 1020.8 |
| 20260502184527 | 53 | 247 | 0.0 | 3.0 | 0.00 | 0.00 | 0.00 | 30 | 1021.1 |
| 20260502183024 | 52 | 257 | 0.0 | 4.0 | 0.00 | 0.00 | 0.00 | 31 | 1021.3 |
| 20260502181520 | 48 | 97 | 0.0 | 3.0 | 0.00 | 0.00 | 0.00 | 34 | 1021.6 |
| 20260502163016 | 47 | 250 | 0.0 | 2.0 | 0.00 | 0.00 | 0.00 | 38 | 1022.2 |
| 20260502161509 | 46 | 87 | 0.0 | 3.0 | 0.00 | 0.00 | 0.00 | 41 | 1022.5 |
| 20260502151610 | 40 | 203 | 0.0 | 0.0 | 0.00 | 0.00 | 0.00 | 59 | 1022.9 |
| 20260502140118 | 26 | 189 | 0.0 | 0.0 | 0.00 | 0.00 | 0.00 | 85 | 1023.8 |
| 20260502123040 | 24 | 189 | 0.0 | 0.0 | 0.00 | 0.00 | 0.00 | 84 | 1022.7 |
| 20260502121539 | 25 | 189 | 0.0 | 0.0 | 0.00 | 0.00 | 0.00 | 83 | 1022.6 |
| 20260502114533 | 25 | 189 | 0.0 | 0.0 | 0.00 | 0.00 | 0.00 | 83 | 1022.5 |
| 20260502113045 | 25 | 189 | 0.0 | 0.0 | 0.00 | 0.00 | 0.00 | 83 | 1022.5 |
| 20260502111533 | 25 | 189 | 0.0 | 0.0 | 0.00 | 0.00 | 0.00 | 82 | 1022.4 |
| 20260502110035 | 26 | 189 | 0.0 | 0.0 | 0.00 | 0.00 | 0.00 | 82 | 1022.4 |
| 20260502104527 | 26 | 189 | 0.0 | 0.0 | 0.00 | 0.00 | 0.00 | 81 | 1022.2 |
| 20260502103026 | 26 | 189 | 0.0 | 0.0 | 0.00 | 0.00 | 0.00 | 81 | 1022.2 |
| 20260502101526 | 27 | 189 | 0.0 | 0.0 | 0.00 | 0.00 | 0.00 | 81 | 1022.2 |
| 20260502091518 | 27 | 189 | 0.0 | 0.0 | 0.00 | 0.00 | 0.00 | 81 | 1021.9 |
| 20260502070111 | 30 | 193 | 0.0 | 0.0 | 0.00 | 0.00 | 0.00 | 75 | 1020.3 |
| 20260502064605 | 31 | 193 | 0.0 | 0.0 | 0.00 | 0.00 | 0.00 | 74 | 1020.1 |
| 20260502063053 | 32 | 193 | 0.0 | 0.0 | 0.00 | 0.00 | 0.00 | 73 | 1019.7 |
| 20260502061545 | 33 | 193 | 0.0 | 0.0 | 0.00 | 0.00 | 0.00 | 69 | 1019.6 |
| 20260502060042 | 34 | 193 | 0.0 | 0.0 | 0.00 | 0.00 | 0.00 | 66 | 1019.5 |
| 20260502054541 | 35 | 193 | 0.0 | 0.0 | 0.00 | 0.00 | 0.00 | 64 | 1019.4 |
| 20260502053041 | 36 | 193 | 0.0 | 0.0 | 0.00 | 0.00 | 0.00 | 63 | 1019.4 |
| 20260502051540 | 36 | 149 | 0.0 | 0.0 | 0.00 | 0.00 | 0.00 | 65 | 1019.4 |
| 20260502050041 | 36 | 62 | 0.0 | 2.0 | 0.00 | 0.00 | 0.00 | 62 | 1019.5 |
| 20260502044539 | 37 | 20 | 1.0 | 6.0 | 0.00 | 0.00 | 0.00 | 61 | 1019.6 |
| 20260502043039 | 37 | 224 | 0.0 | 3.0 | 0.00 | 0.00 | 0.00 | 62 | 1019.5 |
| 20260502041546 | 37 | 70 | 0.0 | 2.0 | 0.00 | 0.00 | 0.00 | 58 | 1019.5 |
| 20260502040036 | 36 | 272 | 0.0 | 2.0 | 0.00 | 0.00 | 0.00 | 64 | 1019.3 |
| 20260502034535 | 37 | 308 | 0.0 | 4.0 | 0.00 | 0.00 | 0.00 | 63 | 1019.1 |
| 20260502033032 | 37 | 269 | 0.0 | 3.0 | 0.00 | 0.00 | 0.00 | 64 | 1018.8 |
| 20260502031531 | 37 | 263 | 0.0 | 3.0 | 0.00 | 0.00 | 0.00 | 67 | 1018.5 |
| 20260502030030 | 37 | 243 | 0.0 | 6.0 | 0.00 | 0.00 | 0.00 | 69 | 1018.2 |
| 20260502024529 | 37 | 223 | 0.0 | 1.0 | 0.00 | 0.00 | 0.00 | 65 | 1018.1 |
| 20260502023026 | 37 | 240 | 0.0 | 3.0 | 0.00 | 0.00 | 0.00 | 63 | 1017.6 |
| 20260502021524 | 37 | 249 | 0.0 | 3.0 | 0.00 | 0.00 | 0.00 | 66 | 1017.4 |
| 20260502020024 | 36 | 262 | 0.0 | 3.0 | 0.00 | 0.00 | 0.00 | 68 | 1017.4 |
| 20260502014524 | 37 | 105 | 0.0 | 1.0 | 0.00 | 0.00 | 0.00 | 66 | 1017.3 |
| 20260502013023 | 37 | 259 | 0.0 | 1.0 | 0.00 | 0.00 | 0.00 | 67 | 1017.1 |
| 20260502011521 | 37 | 238 | 0.0 | 3.0 | 0.00 | 0.00 | 0.00 | 68 | 1017.0 |
| 20260502010021 | 37 | 205 | 0.0 | 5.0 | 0.00 | 0.00 | 0.00 | 70 | 1017.1 |
| 20260502004521 | 37 | 210 | 0.0 | 2.0 | 0.00 | 0.00 | 0.00 | 69 | 1017.1 |
| 20260502003019 | 39 | 259 | 0.0 | 7.0 | 0.00 | 0.00 | 0.00 | 62 | 1016.9 |
| 20260502001519 | 41 | 255 | 2.0 | 8.0 | 0.00 | 0.00 | 0.00 | 57 | 1016.3 |
| 20260502000014 | 42 | 116 | 0.0 | 6.0 | 0.00 | 0.00 | 0.00 | 54 | 1016.0 |